sat.trackr.live / text

‹ back to catalog

STARLINK-34823

NORAD 65355 · 2025-190E

PAYLOAD ACTIVE UNKNOWN

§ Identity

Operator
Country
US
Launch date
2025-08-28
Launch site
AFETR
Launch vehicle
Mass (kg)
RCS (m²)

Purposes: comms

External: N2YO · Heavens-Above · Gunter

§ Orbital elements

Epoch: 2026-09-20T12:12:28.579104Z

Period
93.85 min
Inclination
53.1591°
Eccentricity
0.0001202
Mean motion
15.34410778 rev/d
Perigee alt
461.8 km
Apogee alt
463.5 km
Semi-major
6,840.8 km
B*
7.9140e-4
RAAN
341.7957°
Arg perigee
69.5884°
Mean anomaly
290.5248°
Rev number
5,960

§ Raw data

STARLINK-348231 65355U 25190E   26263.50866411  .00026466  00000+0  79140-3 0  99982 65355  53.1591 341.7957 0001202  69.5884 290.5248 15.34410778 59601

JSON: /api/v1/satellites/65355 · /tle

For live sub-satellite position, see the globe view (requires WebGL).

§ Visibility from observer

Set your observer location to see the next 7 days of passes ≥ 10°. The values pass through the URL so the page stays shareable.

No JS? Fill the form by hand. The geolocation button needs JavaScript.